User: anonymous   Login
Location: Sewell
(39.7660°N, 75.1450°W)
Time: 14:55:59
(UTC-04:00)
Language:

ISS - Orbit

View from above orbital plane
View from above orbital plane
View from above satellite
View from above satellite

Ground track
Ground track

The orbit data is extracted from the following two-line orbital elements,

1 25544U 98067A   16243.57724506  .00002044  00000-0  37819-4 0  9994
2 25544  51.6452  46.8354 0002838 261.1984 140.7397 15.54348084 16568
Epoch (UTC): 30 August 2016 13:51:13
Eccentricity: 0.0002838
inclination: 51.6452°
perigee height: 402 km
apogee height: 406 km
right ascension of ascending node: 46.8354°
argument of perigee: 261.1984°
revolutions per day: 15.54348084
mean anomaly at epoch: 140.7397°
orbit number at epoch: 1656

The dashed part of the orbit path shows where the satellite is in the earth's shadow,  

DLR